EHI
18 16 16 17 19 20 18 15 13 9 5 1 0 0 0 1 2 2 2 6 12 18 20 21 24 28 29 27 24 19 11 6 4 3 4 5 4 3 2 2 2 0 0
18 17 16 16 17 18 17 13 11 8 4 1 0 0 0 0 1 2 2 5 11 15 16 18 20 22 23 22 21 18 12 8 6 6 6 6 5 3 2 1 2 1 0
16 15 14 13 15 16 14 10 8 5 2 1 0 0 0 0 0 1 1 4 7 9 11 14 16 18 17 16 16 15 13 10 9 9 8 5 4 3 1 1 1 1 0
16 14 11 11 12 13 12 9 6 3 2 1 1 1 0 0 0 0 0 1 2 4 6 9 13 15 15 13 13 12 11 10 10 10 8 5 4 3 1 0 1 1 1
17 15 12 12 12 12 10 7 4 3 3 2 2 1 0 0 0 0 0 0 0 1 2 4 8 12 14 12 10 9 8 8 10 10 7 4 3 3 1 0 0 1 2
16 16 15 14 13 11 9 6 3 2 2 2 1 0 0 0 0 0 0 0 0 0 1 2 4 8 10 10 10 8 6 7 8 8 6 3 3 4 2 1 1 2 3
15 16 16 15 13 10 8 6 3 1 1 1 1 1 1 0 0 0 0 0 0 0 0 1 2 3 5 8 9 8 6 6 7 8 7 6 6 6 4 3 3 3 3
16 16 14 12 12 10 8 7 4 1 1 2 4 3 2 1 0 0 0 0 0 0 0 0 0 1 2 4 6 6 6 6 8 10 11 10 11 10 7 5 4 3 3
16 16 13 11 11 11 10 8 6 3 2 3 5 5 3 1 0 0 0 0 0 0 0 0 0 0 0 1 2 3 4 5 7 11 13 13 13 11 8 6 4 3 2
13 13 12 10 11 11 10 9 8 6 4 4 5 5 2 0 0 0 0 0 0 0 0 0 0 0 0 0 0 1 1 2 3 7 10 11 11 9 9 8 5 2 2
8 9 9 8 7 9 9 9 9 7 6 4 4 4 3 1 1 1 0 0 0 0 0 0 0 0 0 0 0 0 0 0 1 2 4 6 7 6 7 8 7 4 3
4 4 5 4 3 3 6 8 8 7 6 5 4 4 3 3 2 2 1 0 0 0 0 0 0 0 0 0 0 0 0 0 0 0 1 2 3 3 4 6 8 8 5
1 1 2 2 0 0 2 4 5 5 4 4 4 4 3 3 3 3 2 0 0 0 0 0 0 0 0 0 0 0 0 0 0 0 0 1 1 1 2 3 5 7 6
0 0 0 0 0 0 0 1 3 3 3 3 4 3 3 3 3 3 1 0 0 0 0 0 0 0 0 0 0 0 0 0 0 0 0 0 0 0 1 1 2 3 4
0 0 0 0 0 0 0 0 1 2 3 3 3 3 3 3 3 2 1 0 0 0 0 0 0 0 0 0 0 0 0 0 0 0 0 0 0 0 0 0 0 1 1
0 0 0 0 0 0 0 0 0 1 2 2 3 3 3 3 3 3 1 0 0 0 0 0 0 0 0 0 0 0 0 0 0 0 0 0 0 0 0 0 0 0 0
0 0 0 0 0 0 0 0 0 0 1 1 1 2 2 3 4 3 1 0 0 0 0 0 0 0 0 0 0 0 0 0 0 0 0 0 0 0 0 0 0 0 0
0 0 0 0 0 0 0 0 0 0 0 0 0 1 1 2 3 3 2 0 0 0 0 0 0 0 0 0 0 0 0 0 0 0 0 0 0 0 0 0 0 0 0
0 0 0 0 0 0 0 0 0 0 0 0 0 0 0 1 1 2 2 1 0 0 0 0 0 0 0 0 0 0 0 0 0 0 0 0 0 0 0 0 0 0 0
0 0 0 0 0 0 0 0 0 0 0 0 0 0 0 0 0 1 2 1 1 0 0 0 0 0 0 0 0 0 0 0 0 0 0 0 0 0 0 0 0 0 0
0 0 0 0 0 0 0 0 0 0 0 0 0 0 0 0 0 1 2 2 2 1 0 0 0 0 0 0 0 0 0 0 0 0 0 0 0 0 0 0 0 0 0
0 0 0 0 0 0 0 0 0 0 0 0 0 0 0 0 0 0 1 1 2 1 0 0 0 0 0 0 0 0 0 0 0 0 0 0 0 0 0 0 0 0 0
0 0 0 0 0 0 0 0 0 0 0 0 0 0 0 0 0 0 0 0 1 1 0 0 0 0 0 0 0 0 0 0 0 0 0 0 0 0 0 0 0 0 0
0 0 0 0 0 0 0 0 0 0 0 0 0 0 0 0 0 0 0 0 0 0 0 0 0 0 0 0 0 0 0 0 0 0 0 0 0 0 0 0 0 0 0
0 0 0 0 0 0 0 0 0 0 0 0 0 0 0 0 0 0 0 0 1 0 0 0 0 0 0 0 0 0 0 0 0 0 0 0 0 0 0 0 0 0 0
0 0 0 0 0 0 0 0 0 0 0 0 0 0 0 0 0 0 0 0 1 0 0 0 0 0 0 0 0 0 0 0 0 0 0 0 0 0 0 0 0 0 0
Wind_Speed
4 3 3 3 3 3 3 3 3 3 4 5 5 5 5 5 5 5 4 10 12 13 14 14 15 15 16 16 15 15 15 15 15 15 15 14 15 14 14 14 14 14 14
3 3 2 2 3 3 3 4 4 4 4 3 4 5 5 4 5 5 5 6 10 12 13 14 14 15 15 16 16 16 15 15 15 15 15 15 15 15 15 14 14 15 15
3 2 2 2 3 3 3 3 3 3 3 3 4 5 5 5 4 5 5 4 5 9 12 13 13 14 15 15 16 16 16 16 16 16 16 16 16 15 15 14 15 15 15
3 2 2 2 3 2 2 2 2 2 3 3 4 4 4 4 4 4 4 4 4 5 8 11 12 12 12 14 15 15 16 16 17 17 17 17 16 16 15 15 15 15 15
3 3 2 2 2 2 2 3 2 2 3 3 4 4 3 4 4 3 3 4 5 5 4 8 11 11 12 13 13 14 16 16 16 17 17 17 17 16 16 15 15 15 16
3 3 2 2 1 1 1 1 2 2 2 3 3 3 3 3 3 3 4 3 4 5 5 5 5 7 11 11 12 13 15 15 15 16 16 17 16 16 16 16 16 16 16
2 2 2 1 1 1 2 2 1 2 2 1 0 2 3 3 2 3 3 3 3 4 4 4 4 3 4 9 11 13 14 15 15 15 16 16 15 15 16 16 16 16 16
2 2 2 2 2 1 1 1 1 1 1 1 1 0 2 3 3 3 2 3 3 3 3 5 4 4 4 3 6 11 11 12 13 14 14 14 14 15 15 16 17 17 16
2 2 2 2 1 1 1 2 2 2 2 2 1 2 2 3 3 2 3 3 2 2 3 3 4 4 5 4 4 8 10 10 11 12 12 12 13 14 15 16 17 17 17
1 1 2 2 2 2 2 2 2 2 2 2 2 2 2 3 2 2 3 2 3 3 3 3 3 3 4 3 5 8 10 10 10 11 11 11 12 13 15 16 17 17 18
2 1 1 1 2 2 2 2 2 2 2 3 2 2 2 1 2 2 3 3 3 3 3 3 3 3 3 3 4 7 10 10 10 10 10 10 11 12 12 14 15 16 17
2 2 1 1 2 2 2 3 2 2 3 3 3 2 2 2 2 2 3 2 3 3 3 3 3 3 3 3 5 8 9 9 9 9 10 10 10 11 11 13 14 15 16
2 2 1 1 2 2 2 3 2 3 3 3 4 3 3 3 2 2 2 2 2 2 2 2 3 2 2 2 3 7 8 9 9 9 10 10 10 10 10 11 13 14 14
2 2 2 2 2 2 2 2 2 3 3 3 4 4 3 3 3 3 3 2 1 2 2 3 2 2 2 2 4 6 5 9 9 9 9 9 10 10 9 10 11 11 11
2 2 2 1 2 2 3 2 2 3 3 3 3 3 3 2 2 2 2 3 3 2 3 3 2 2 2 1 3 3 4 8 9 9 9 10 10 9 9 9 9 9 9
1 2 2 2 1 1 2 1 2 2 2 2 2 2 2 2 2 2 2 2 3 3 3 3 3 2 2 2 3 3 4 7 8 8 9 9 9 9 9 9 9 8 8
1 1 2 2 2 2 2 1 2 2 2 2 2 2 3 3 2 2 2 2 2 2 3 4 2 2 2 3 2 2 2 3 3 6 7 8 8 8 8 9 9 9 9
1 2 1 1 2 2 2 1 2 2 2 3 3 2 3 3 3 3 2 2 2 3 3 4 3 2 2 3 2 2 2 2 2 5 7 8 8 9 9 9 9 9 9
2 2 2 2 2 2 2 2 2 2 3 3 3 3 3 2 3 2 2 2 2 2 2 2 3 2 2 1 1 2 2 1 2 4 6 7 8 9 9 9 9 9 9
2 2 2 2 2 2 2 2 2 2 2 3 3 3 3 2 2 3 2 2 2 2 2 2 2 2 2 1 0 1 2 1 2 2 2 3 5 7 8 9 9 9 10
2 2 2 2 3 2 2 2 2 2 2 3 3 3 2 2 2 2 2 2 2 2 1 1 2 1 2 1 1 1 1 2 2 1 1 2 1 2 4 7 9 10 10
2 2 2 2 3 3 3 3 2 1 1 2 3 3 2 2 2 2 2 2 2 2 2 2 2 2 3 2 2 2 1 1 2 1 0 2 1 2 3 3 7 9 10
2 2 2 2 3 4 4 3 2 0 1 2 2 2 3 3 3 2 3 3 3 3 4 3 3 4 3 3 2 2 2 2 3 2 1 2 2 3 3 4 8 9 10
2 2 2 2 2 4 4 3 2 1 1 2 2 2 2 3 3 2 2 3 3 3 3 3 3 4 4 3 4 3 3 2 3 2 2 2 2 3 3 3 7 9 10
2 2 2 2 2 4 4 3 2 1 2 3 3 2 2 2 4 3 1 2 4 4 3 2 3 4 5 5 4 1 1 1 2 3 2 2 2 2 3 3 5 8 10
1 2 2 2 2 2 3 3 2 0 1 3 3 3 4 3 4 3 1 2 3 4 3 4 3 3 3 3 4 4 4 3 2 2 2 2 2 1 2 3 2 3 4
Wind_Direction
203 206 208 208 213 208 206 212 216 227 237 241 239 240 247 238 234 235 242 240 231 226 222 220 220 220 217 214 212 212 211 212 210 208 207 207 206 205 207 207 206 205 204
201 202 206 210 214 210 212 216 213 221 233 238 245 247 249 242 235 234 235 240 234 230 228 226 224 223 223 220 217 217 215 214 214 212 210 209 209 209 209 208 209 208 207
201 204 204 211 218 211 210 220 224 225 232 240 245 251 250 243 236 236 231 229 234 237 237 235 231 228 228 227 225 223 219 216 216 215 213 212 210 210 211 211 211 210 209
196 201 213 220 218 206 203 213 210 220 235 239 241 246 243 240 236 235 226 225 228 236 238 238 236 233 232 232 231 229 225 222 220 218 215 214 213 212 213 213 213 213 211
202 200 223 233 217 207 209 224 213 206 237 249 245 237 238 241 241 236 228 227 225 226 226 235 238 237 235 235 234 233 231 228 224 220 218 218 216 213 214 215 215 215 214
212 205 224 241 214 206 232 237 229 224 230 245 261 261 252 249 238 222 224 227 225 226 224 228 231 235 236 237 235 236 236 234 230 225 223 222 220 217 216 216 216 215 215
215 201 222 232 217 209 225 235 235 244 257 255 305 297 290 268 248 232 219 216 229 232 226 223 222 222 234 237 236 237 237 236 234 229 228 227 223 220 219 218 218 217 216
214 203 212 229 226 219 245 242 219 224 260 207 174 225 307 317 290 256 238 228 236 238 238 234 227 224 225 223 230 237 238 236 236 234 232 230 226 224 223 221 220 220 217
227 216 206 214 222 196 224 245 232 204 233 251 195 172 192 244 287 285 245 239 244 243 248 245 238 233 228 222 224 232 233 231 235 237 236 233 229 229 227 223 222 221 220
282 239 209 198 202 205 222 241 234 228 209 239 254 223 206 194 207 287 301 276 259 252 249 255 251 245 234 224 225 226 226 226 231 235 237 234 232 232 230 225 224 223 223
258 248 209 218 227 221 226 243 243 241 222 221 225 230 234 234 207 202 271 298 301 275 255 250 246 243 239 230 227 227 223 221 225 232 234 233 233 234 231 229 226 225 227
279 274 236 228 244 243 237 238 243 242 237 232 227 216 205 210 220 204 229 263 278 279 272 255 243 238 237 232 238 232 222 221 225 228 230 230 233 234 232 232 231 229 230
269 268 265 242 241 246 252 243 242 246 245 241 233 228 218 218 205 196 206 241 262 282 283 264 245 238 245 230 244 238 227 226 228 229 230 230 233 235 236 237 235 233 230
251 259 258 254 265 255 253 258 251 251 251 249 246 234 228 231 208 198 193 196 263 290 285 270 274 246 254 237 240 233 232 227 230 231 230 231 233 234 235 239 238 233 230
260 261 262 265 276 271 262 262 260 260 257 249 245 238 232 231 219 213 199 184 189 249 272 260 265 265 271 261 243 230 229 227 229 232 231 228 230 232 233 235 235 229 226
297 299 295 296 300 295 292 289 280 277 268 268 256 247 247 236 234 220 208 206 198 206 248 257 253 263 278 277 261 241 240 235 229 229 230 228 228 231 233 231 226 222 220
285 293 302 297 284 285 292 284 276 278 281 289 288 260 245 234 231 226 212 211 212 200 241 273 268 263 249 256 272 257 250 240 234 234 234 231 228 231 231 226 221 220 219
280 282 291 291 286 284 277 250 263 281 279 279 281 281 267 245 230 223 210 216 220 210 213 259 280 282 260 251 249 247 247 242 238 241 235 235 235 233 229 226 223 221 218
288 298 295 282 290 280 264 254 250 269 274 270 270 275 278 258 244 234 218 221 231 233 214 225 260 271 272 269 278 277 267 260 256 246 237 237 239 236 231 229 227 224 220
274 285 293 292 295 291 276 268 271 284 292 295 291 275 271 271 245 239 233 230 227 236 232 226 249 268 270 282 264 267 294 293 276 269 252 242 241 240 236 232 229 226 224
292 298 311 322 320 309 290 284 291 297 307 313 312 304 292 279 258 245 233 236 226 228 233 231 245 264 273 282 262 252 258 290 299 271 278 268 249 250 242 235 233 230 228
321 335 323 326 328 321 316 308 300 299 310 320 320 321 318 308 305 306 277 255 228 217 227 228 237 235 251 243 242 236 234 278 295 280 205 276 231 250 250 237 233 229 230
337 324 314 326 321 317 323 323 321 345 333 324 317 320 327 331 324 311 318 326 312 283 237 213 223 237 235 227 207 230 227 218 237 240 184 267 255 256 252 246 238 232 231
307 299 298 319 320 320 328 326 334 27 358 326 309 289 294 312 320 313 324 325 318 307 277 234 223 241 242 236 216 213 215 241 271 258 185 239 258 254 261 255 245 237 235
304 294 299 317 326 319 330 331 350 21 346 322 314 310 293 299 308 317 332 314 318 313 309 272 248 257 258 255 229 175 195 209 280 278 205 203 250 261 265 256 250 239 237
272 291 311 317 316 310 334 345 336 52 326 313 318 315 309 307 306 306 275 270 289 293 315 329 325 315 291 276 241 198 195 202 232 267 238 193 236 231 291 272 255 243 235